Regional Weather Roundup
Issued by NWS

Home | Current Version | Previous Version | Text Only | Print | Product List | Glossary On
Versions: 1 2 3 4 5 6 7 8 9 10 11 12 13 14 15 16 17 18 19 20 21 22 23 24 25 26 27 28 29 30 31 32 33 34 35 36 37 38 39 40 41 42 43 44 45 46 47 48 49 50
000
ASUS43 KTOP 072008
RWRKS

WEATHER ROUNDUP FOR KANSAS
NATIONAL WEATHER SERVICE GOODLAND KS
200 PM CST WED DEC 07 2016

NOTE:  "FAIR" INDICATES FEW OR NO CLOUDS BELOW 12,000 FEET WITH NO
SIGNIFICANT WEATHER AND/OR OBSTRUCTIONS TO VISIBILITY.

KSZ001>006-013>018-027>032-041>047-072100-
NORTHWEST KANSAS

CITY           SKY/WX    TMP DP  RH WIND       PRES   REMARKS
GOODLAND       LGT SNOW  16   9  74 N13       30.26S WCI   2
HAYS           PTSUNNY   23  17  78 NE10      30.33R WCI  12
HILL CITY      CLOUDY    22  14  71 N10       30.34S WCI  11
RUSSELL        PTSUNNY   23  16  74 N14       30.31  WCI  11
$$

KSZ061>065-074>080-084>089-072100-
SOUTHWEST KANSAS

CITY           SKY/WX    TMP DP  RH WIND       PRES   REMARKS
DODGE CITY     LGT SNOW  22  18  85 NE18G24   30.25S FOG     WCI   7
ELKHART          N/A     21   7  55 N18         N/A  WCI   6
GARDEN CITY    CLOUDY    20  15  81 NE18      30.25R WCI   5
GREAT BEND     FLURRIES  24  19  81 N15       30.31R WCI  11
LIBERAL        CLOUDY    25  12  58 NE18G26   30.21R WCI  11
PRATT          CLOUDY    26  17  67 NE18      30.27R WCI  13
$$

KSZ066>073-081>083-090>101-072100-
SOUTHEAST KANSAS

CITY           SKY/WX    TMP DP  RH WIND       PRES   REMARKS
CHANUTE        FLURRIES  30  23  75 N14       30.27R WCI  19
COFFEYVILLE    CLOUDY    36  23  59 NE9       30.25S
HUTCHINSON     LGT SNOW  27  22  81 N15       30.30R WCI  15
MEDICINE LODGE   N/A     33  16  49 NE17      30.25R WCI  22
NEWTON         LGT SNOW  26  23  88 N18       30.29R FOG     WCI  13
PARSONS        CLOUDY    36  19  50 N10       30.25F WCI  28
WICHITA INTL   CLOUDY    32  22  66 NE20      30.28R WCI  20
WICHITA JABRA  CLOUDY    30  23  75 N17G25    30.28R WCI  18
WICHITA MCCONL CLOUDY    32  22  67 NE17      30.27R WCI  21
WINFIELD       CLOUDY    37  16  42 NE13      30.25R WCI  29
$$

KSZ007>012-019>026-033>040-048>060-102>105-072100-
NORTHEAST KANSAS

CITY           SKY/WX    TMP DP  RH WIND       PRES   REMARKS
CONCORDIA      MOSUNNY   25  15  66 NW13      30.34F WCI  14
EMPORIA        LGT SNOW  27  24  89 N10       30.31S FOG     WCI  17
LAWRENCE       CLOUDY    26  21  81 NW15      30.34R HAZE    WCI  14
MANHATTAN      CLOUDY    27  17  66 N7        30.35S
MARYSVILLE     PTSUNNY   27  10  50 NW15      30.33F WCI  15
OLATHE IND     CLOUDY    26  22  84 NW10      30.31S FOG     WCI  16
OLATHE EXE     LGT SNOW  26  22  84 NW9       30.30S FOG
SALINA         CLOUDY    26  21  81 N13       30.35F HAZE    WCI  15
TOPEKA BILLARD LGT SNOW  27  21  78 NW7       30.34S
TOPEKA FORBES  CLOUDY    28  20  71 N13       30.33R HAZE    WCI  17
$$



USA.gov is the U.S. government's official web portal to all federal, state and local government web resources and services.